QPF
0.00 0.00 0.00 0.00 0.00 0.00 0.01 0.01 0.01 0.01 0.02 0.01 0.01 0.02 0.02 0.03 0.05 0.05 0.05 0.03 0.03 0.03 0.02 0.02 0.03 0.06 0.09 0.12 0.12 0.08 0.06 0.06 0.07 0.07 0.06 0.06 0.07 0.08 0.07 0.06 0.05 0.05 0.05 0.08
0.00 0.00 0.00 0.00 0.00 0.00 0.00 0.01 0.04 0.03 0.01 0.02 0.01 0.02 0.03 0.03 0.03 0.04 0.06 0.05 0.04 0.03 0.03 0.01 0.02 0.02 0.02 0.03 0.07 0.07 0.05 0.05 0.07 0.08 0.09 0.09 0.10 0.10 0.07 0.05 0.06 0.06 0.07 0.08
0.00 0.00 0.00 0.00 0.00 0.00 0.00 0.01 0.07 0.11 0.03 0.02 0.02 0.03 0.03 0.02 0.02 0.02 0.02 0.04 0.04 0.03 0.05 0.04 0.02 0.01 0.01 0.02 0.02 0.03 0.04 0.05 0.08 0.10 0.09 0.10 0.10 0.08 0.08 0.08 0.08 0.07 0.06 0.06
0.00 0.00 0.00 0.00 0.00 0.00 0.00 0.02 0.07 0.10 0.04 0.02 0.02 0.05 0.03 0.03 0.04 0.04 0.02 0.03 0.03 0.03 0.04 0.04 0.02 0.03 0.04 0.03 0.01 0.02 0.02 0.04 0.07 0.08 0.08 0.08 0.07 0.08 0.10 0.09 0.09 0.06 0.06 0.05
0.01 0.00 0.01 0.01 0.00 0.00 0.01 0.01 0.03 0.04 0.02 0.01 0.02 0.03 0.03 0.05 0.09 0.07 0.03 0.02 0.03 0.06 0.07 0.04 0.03 0.03 0.04 0.05 0.02 0.02 0.03 0.04 0.06 0.08 0.08 0.09 0.08 0.10 0.11 0.10 0.09 0.07 0.08 0.06
0.00 0.00 0.00 0.01 0.00 0.00 0.01 0.02 0.05 0.06 0.06 0.04 0.03 0.04 0.04 0.04 0.08 0.07 0.06 0.06 0.08 0.09 0.06 0.03 0.02 0.02 0.04 0.04 0.02 0.03 0.04 0.05 0.06 0.06 0.07 0.08 0.08 0.10 0.11 0.09 0.09 0.10 0.10 0.08
0.00 0.00 0.00 0.00 0.01 0.01 0.01 0.03 0.05 0.04 0.06 0.05 0.03 0.05 0.07 0.06 0.06 0.05 0.08 0.08 0.04 0.04 0.03 0.02 0.01 0.02 0.02 0.02 0.03 0.03 0.04 0.06 0.06 0.06 0.08 0.08 0.08 0.10 0.11 0.09 0.09 0.12 0.13 0.11
0.01 0.01 0.01 0.00 0.00 0.01 0.01 0.03 0.06 0.08 0.08 0.06 0.03 0.07 0.11 0.08 0.08 0.05 0.05 0.04 0.04 0.03 0.02 0.02 0.02 0.02 0.02 0.02 0.02 0.02 0.02 0.04 0.05 0.06 0.07 0.07 0.07 0.08 0.08 0.08 0.08 0.09 0.09 0.08
0.02 0.01 0.01 0.01 0.00 0.00 0.01 0.02 0.02 0.06 0.05 0.05 0.05 0.06 0.06 0.05 0.05 0.03 0.03 0.04 0.03 0.03 0.03 0.02 0.02 0.03 0.03 0.02 0.01 0.02 0.03 0.03 0.05 0.06 0.05 0.06 0.06 0.08 0.08 0.08 0.07 0.07 0.06 0.05
0.02 0.02 0.00 0.00 0.00 0.00 0.00 0.00 0.02 0.06 0.07 0.07 0.07 0.08 0.07 0.06 0.05 0.05 0.04 0.04 0.03 0.03 0.02 0.02 0.02 0.03 0.03 0.02 0.02 0.03 0.04 0.03 0.04 0.05 0.06 0.05 0.05 0.06 0.06 0.07 0.06 0.06 0.06 0.05
0.01 0.02 0.02 0.00 0.00 0.01 0.00 0.01 0.02 0.05 0.07 0.08 0.11 0.11 0.06 0.06 0.08 0.05 0.03 0.02 0.03 0.04 0.03 0.03 0.03 0.03 0.02 0.02 0.03 0.04 0.03 0.03 0.03 0.04 0.04 0.03 0.03 0.04 0.05 0.05 0.05 0.05 0.05 0.05
0.00 0.02 0.05 0.01 0.00 0.00 0.00 0.01 0.01 0.05 0.08 0.07 0.09 0.12 0.06 0.05 0.04 0.03 0.03 0.04 0.05 0.07 0.04 0.03 0.03 0.04 0.04 0.03 0.02 0.03 0.03 0.02 0.03 0.03 0.04 0.04 0.04 0.05 0.05 0.05 0.05 0.04 0.04 0.06
0.01 0.02 0.04 0.04 0.03 0.01 0.00 0.00 0.00 0.01 0.04 0.05 0.08 0.09 0.05 0.03 0.03 0.03 0.03 0.03 0.05 0.06 0.03 0.04 0.05 0.05 0.05 0.03 0.03 0.02 0.02 0.02 0.02 0.02 0.03 0.04 0.05 0.05 0.04 0.05 0.05 0.07 0.08 0.08
0.00 0.02 0.06 0.09 0.07 0.03 0.01 0.00 0.00 0.02 0.04 0.05 0.05 0.06 0.06 0.05 0.05 0.04 0.03 0.03 0.02 0.03 0.03 0.04 0.06 0.03 0.02 0.02 0.02 0.02 0.02 0.02 0.01 0.01 0.02 0.04 0.04 0.05 0.05 0.05 0.07 0.09 0.11 0.12
0.02 0.04 0.05 0.03 0.01 0.01 0.00 0.00 0.01 0.01 0.03 0.04 0.06 0.08 0.07 0.06 0.05 0.04 0.03 0.03 0.02 0.03 0.03 0.04 0.04 0.03 0.03 0.02 0.02 0.02 0.03 0.03 0.02 0.02 0.02 0.03 0.03 0.04 0.06 0.07 0.09 0.11 0.10 0.10
0.01 0.03 0.02 0.01 0.01 0.01 0.01 0.01 0.01 0.01 0.02 0.03 0.04 0.08 0.10 0.10 0.06 0.06 0.05 0.03 0.03 0.03 0.04 0.05 0.03 0.03 0.03 0.03 0.04 0.03 0.03 0.03 0.02 0.02 0.03 0.04 0.04 0.05 0.06 0.07 0.08 0.08 0.07 0.06
0.02 0.04 0.03 0.02 0.01 0.02 0.04 0.03 0.03 0.03 0.03 0.03 0.04 0.05 0.06 0.06 0.04 0.03 0.04 0.03 0.04 0.04 0.05 0.05 0.04 0.03 0.02 0.03 0.03 0.03 0.03 0.03 0.03 0.02 0.02 0.03 0.05 0.05 0.06 0.06 0.06 0.06 0.06 0.06
0.01 0.02 0.03 0.04 0.05 0.09 0.06 0.02 0.02 0.03 0.05 0.04 0.04 0.06 0.03 0.03 0.03 0.02 0.02 0.03 0.02 0.03 0.04 0.05 0.04 0.03 0.03 0.02 0.01 0.01 0.01 0.02 0.02 0.02 0.02 0.03 0.05 0.05 0.06 0.06 0.05 0.05 0.05 0.06
0.01 0.02 0.05 0.08 0.09 0.08 0.05 0.02 0.03 0.05 0.10 0.09 0.07 0.05 0.04 0.03 0.04 0.03 0.02 0.02 0.02 0.03 0.03 0.04 0.05 0.04 0.04 0.02 0.02 0.01 0.01 0.02 0.02 0.02 0.03 0.04 0.04 0.04 0.05 0.06 0.05 0.05 0.06 0.06
0.01 0.02 0.05 0.07 0.11 0.10 0.07 0.02 0.01 0.05 0.10 0.05 0.03 0.03 0.05 0.05 0.08 0.05 0.03 0.02 0.01 0.02 0.03 0.04 0.05 0.04 0.04 0.03 0.02 0.02 0.02 0.02 0.03 0.04 0.04 0.03 0.03 0.04 0.04 0.05 0.05 0.05 0.06 0.06
0.03 0.04 0.06 0.08 0.10 0.06 0.03 0.01 0.02 0.12 0.12 0.04 0.05 0.06 0.06 0.06 0.07 0.06 0.03 0.02 0.02 0.03 0.04 0.04 0.05 0.04 0.05 0.04 0.02 0.03 0.03 0.03 0.03 0.04 0.05 0.04 0.04 0.05 0.04 0.05 0.06 0.06 0.06 0.06
0.04 0.05 0.06 0.08 0.10 0.10 0.03 0.02 0.06 0.10 0.06 0.04 0.05 0.05 0.06 0.05 0.04 0.03 0.03 0.04 0.04 0.04 0.04 0.04 0.04 0.04 0.05 0.04 0.02 0.04 0.03 0.03 0.03 0.03 0.04 0.05 0.05 0.03 0.03 0.06 0.07 0.06 0.05 0.06
0.03 0.04 0.04 0.06 0.08 0.05 0.03 0.05 0.06 0.05 0.05 0.05 0.05 0.05 0.05 0.04 0.03 0.03 0.03 0.04 0.03 0.03 0.04 0.05 0.05 0.07 0.06 0.05 0.04 0.04 0.04 0.03 0.03 0.03 0.04 0.05 0.05 0.05 0.07 0.09 0.08 0.05 0.05 0.05
0.01 0.01 0.03 0.03 0.02 0.02 0.04 0.05 0.03 0.03 0.03 0.03 0.03 0.03 0.03 0.04 0.03 0.04 0.04 0.04 0.04 0.04 0.04 0.05 0.07 0.07 0.07 0.06 0.05 0.05 0.04 0.04 0.04 0.04 0.05 0.04 0.05 0.07 0.10 0.09 0.06 0.04 0.03 0.03
0.01 0.02 0.04 0.04 0.02 0.02 0.02 0.03 0.02 0.02 0.02 0.02 0.03 0.02 0.02 0.05 0.05 0.04 0.04 0.05 0.04 0.04 0.04 0.05 0.06 0.05 0.04 0.04 0.03 0.04 0.04 0.04 0.05 0.05 0.05 0.04 0.05 0.08 0.11 0.08 0.04 0.03 0.03 0.03
0.01 0.03 0.06 0.05 0.02 0.02 0.02 0.02 0.02 0.01 0.02 0.02 0.03 0.02 0.03 0.04 0.05 0.05 0.07 0.05 0.03 0.03 0.04 0.04 0.04 0.03 0.02 0.02 0.01 0.02 0.03 0.04 0.04 0.05 0.06 0.06 0.07 0.07 0.05 0.03 0.02 0.02 0.02 0.02
MSLP
1005.26 1005.46 1005.41 1005.12 1004.68 1004.18 1003.75 1003.45 1003.33 1003.38 1003.53 1003.72 1003.86 1003.90 1003.80 1003.57 1003.28 1002.98 1002.76 1002.68 1002.76 1002.99 1003.36 1003.82 1004.30 1004.77 1005.20 1005.61 1006.00 1006.41 1006.86 1007.39 1007.99 1008.64 1009.30 1009.94 1010.50 1010.98 1011.35 1011.63 1011.84 1012.02 1012.21 1012.42
1005.28 1005.38 1005.23 1004.86 1004.38 1003.86 1003.44 1003.19 1003.13 1003.23 1003.43 1003.64 1003.77 1003.76 1003.59 1003.28 1002.89 1002.52 1002.25 1002.16 1002.26 1002.56 1003.02 1003.57 1004.16 1004.72 1005.22 1005.67 1006.08 1006.49 1006.94 1007.46 1008.06 1008.72 1009.40 1010.07 1010.67 1011.17 1011.55 1011.82 1012.01 1012.15 1012.29 1012.46
1005.31 1005.29 1005.04 1004.60 1004.06 1003.55 1003.16 1002.96 1002.97 1003.14 1003.39 1003.62 1003.73 1003.68 1003.44 1003.04 1002.57 1002.13 1001.82 1001.71 1001.84 1002.20 1002.75 1003.41 1004.10 1004.74 1005.31 1005.80 1006.22 1006.61 1007.04 1007.52 1008.09 1008.72 1009.40 1010.06 1010.67 1011.18 1011.58 1011.85 1012.04 1012.18 1012.30 1012.44
1005.40 1005.26 1004.91 1004.40 1003.84 1003.34 1003.00 1002.87 1002.95 1003.19 1003.49 1003.74 1003.85 1003.76 1003.45 1002.98 1002.43 1001.92 1001.56 1001.44 1001.58 1001.99 1002.61 1003.35 1004.12 1004.84 1005.47 1005.98 1006.40 1006.77 1007.15 1007.58 1008.09 1008.67 1009.30 1009.94 1010.54 1011.05 1011.46 1011.76 1011.96 1012.12 1012.25 1012.39
1005.62 1005.37 1004.94 1004.38 1003.80 1003.33 1003.04 1002.98 1003.14 1003.45 1003.80 1004.08 1004.19 1004.07 1003.71 1003.18 1002.56 1001.98 1001.58 1001.42 1001.55 1001.98 1002.63 1003.42 1004.25 1005.02 1005.68 1006.21 1006.62 1006.97 1007.29 1007.65 1008.08 1008.60 1009.17 1009.76 1010.33 1010.84 1011.26 1011.59 1011.83 1012.01 1012.17 1012.32
1006.02 1005.69 1005.19 1004.60 1004.02 1003.57 1003.33 1003.34 1003.56 1003.94 1004.34 1004.64 1004.76 1004.62 1004.24 1003.64 1002.97 1002.34 1001.87 1001.66 1001.77 1002.17 1002.83 1003.63 1004.48 1005.28 1005.96 1006.50 1006.90 1007.21 1007.48 1007.78 1008.14 1008.58 1009.08 1009.62 1010.15 1010.65 1011.07 1011.42 1011.68 1011.90 1012.09 1012.26
1006.64 1006.24 1005.70 1005.08 1004.51 1004.08 1003.88 1003.92 1004.19 1004.60 1005.03 1005.36 1005.48 1005.35 1004.94 1004.32 1003.60 1002.92 1002.40 1002.14 1002.19 1002.55 1003.17 1003.96 1004.80 1005.60 1006.28 1006.82 1007.22 1007.52 1007.76 1008.01 1008.30 1008.67 1009.10 1009.58 1010.07 1010.54 1010.95 1011.30 1011.58 1011.82 1012.02 1012.21
1007.48 1007.04 1006.46 1005.82 1005.24 1004.82 1004.62 1004.67 1004.94 1005.36 1005.79 1006.12 1006.25 1006.12 1005.71 1005.08 1004.35 1003.64 1003.08 1002.76 1002.75 1003.05 1003.62 1004.36 1005.17 1005.96 1006.64 1007.19 1007.60 1007.90 1008.12 1008.34 1008.60 1008.91 1009.28 1009.70 1010.14 1010.56 1010.94 1011.27 1011.54 1011.77 1011.98 1012.16
1008.49 1008.01 1007.40 1006.75 1006.14 1005.68 1005.45 1005.46 1005.69 1006.06 1006.46 1006.78 1006.90 1006.77 1006.37 1005.76 1005.04 1004.33 1003.75 1003.40 1003.34 1003.58 1004.10 1004.78 1005.56 1006.33 1007.02 1007.58 1008.01 1008.32 1008.56 1008.77 1009.00 1009.27 1009.59 1009.95 1010.33 1010.70 1011.02 1011.31 1011.56 1011.76 1011.94 1012.10
1009.59 1009.08 1008.45 1007.76 1007.10 1006.58 1006.27 1006.19 1006.33 1006.62 1006.94 1007.20 1007.29 1007.16 1006.79 1006.22 1005.53 1004.86 1004.29 1003.94 1003.86 1004.06 1004.53 1005.18 1005.93 1006.68 1007.38 1007.96 1008.42 1008.76 1009.02 1009.24 1009.47 1009.72 1009.99 1010.30 1010.61 1010.90 1011.18 1011.40 1011.59 1011.75 1011.89 1012.02
1010.67 1010.14 1009.47 1008.74 1008.02 1007.41 1006.99 1006.78 1006.78 1006.92 1007.13 1007.30 1007.34 1007.19 1006.84 1006.32 1005.70 1005.09 1004.58 1004.27 1004.20 1004.40 1004.85 1005.48 1006.22 1006.97 1007.68 1008.28 1008.77 1009.16 1009.45 1009.69 1009.92 1010.15 1010.39 1010.64 1010.89 1011.12 1011.32 1011.49 1011.62 1011.72 1011.81 1011.89
1011.61 1011.07 1010.38 1009.60 1008.82 1008.11 1007.55 1007.19 1007.02 1006.99 1007.04 1007.08 1007.04 1006.86 1006.53 1006.06 1005.52 1005.00 1004.58 1004.34 1004.33 1004.57 1005.03 1005.67 1006.40 1007.17 1007.89 1008.52 1009.04 1009.46 1009.78 1010.04 1010.27 1010.48 1010.70 1010.90 1011.10 1011.28 1011.42 1011.53 1011.60 1011.66 1011.70 1011.75
1012.33 1011.79 1011.09 1010.28 1009.44 1008.65 1007.97 1007.45 1007.10 1006.88 1006.75 1006.65 1006.50 1006.26 1005.92 1005.50 1005.04 1004.62 1004.30 1004.17 1004.24 1004.55 1005.06 1005.73 1006.48 1007.26 1007.99 1008.64 1009.19 1009.62 1009.96 1010.23 1010.46 1010.66 1010.85 1011.03 1011.19 1011.32 1011.43 1011.50 1011.54 1011.56 1011.58 1011.60
1012.79 1012.26 1011.58 1010.77 1009.91 1009.06 1008.28 1007.62 1007.10 1006.71 1006.40 1006.13 1005.86 1005.54 1005.17 1004.77 1004.38 1004.05 1003.85 1003.82 1004.00 1004.38 1004.96 1005.67 1006.46 1007.25 1008.00 1008.66 1009.20 1009.64 1009.98 1010.25 1010.47 1010.66 1010.83 1011.00 1011.14 1011.26 1011.35 1011.41 1011.44 1011.45 1011.45 1011.45
1012.99 1012.50 1011.85 1011.09 1010.24 1009.39 1008.56 1007.81 1007.16 1006.61 1006.14 1005.70 1005.29 1004.87 1004.45 1004.04 1003.69 1003.43 1003.32 1003.40 1003.68 1004.15 1004.79 1005.55 1006.36 1007.17 1007.92 1008.56 1009.10 1009.53 1009.86 1010.11 1010.32 1010.50 1010.67 1010.83 1010.98 1011.11 1011.22 1011.28 1011.32 1011.34 1011.34 1011.33
1012.98 1012.54 1011.97 1011.28 1010.52 1009.70 1008.89 1008.11 1007.38 1006.72 1006.10 1005.52 1004.97 1004.44 1003.94 1003.49 1003.14 1002.92 1002.87 1003.02 1003.38 1003.92 1004.62 1005.41 1006.24 1007.05 1007.78 1008.42 1008.93 1009.33 1009.64 1009.88 1010.07 1010.25 1010.43 1010.60 1010.77 1010.93 1011.06 1011.16 1011.22 1011.24 1011.24 1011.21
1012.88 1012.49 1012.02 1011.44 1010.78 1010.07 1009.33 1008.57 1007.83 1007.10 1006.38 1005.68 1005.00 1004.35 1003.75 1003.24 1002.85 1002.63 1002.61 1002.80 1003.19 1003.78 1004.50 1005.32 1006.14 1006.94 1007.66 1008.26 1008.74 1009.12 1009.40 1009.62 1009.81 1009.99 1010.18 1010.38 1010.57 1010.76 1010.92 1011.04 1011.12 1011.15 1011.13 1011.08
1012.78 1012.45 1012.07 1011.62 1011.10 1010.52 1009.90 1009.22 1008.51 1007.76 1006.99 1006.20 1005.42 1004.65 1003.95 1003.36 1002.91 1002.65 1002.61 1002.79 1003.19 1003.78 1004.50 1005.31 1006.12 1006.89 1007.58 1008.14 1008.59 1008.94 1009.20 1009.41 1009.60 1009.78 1009.99 1010.21 1010.42 1010.64 1010.82 1010.95 1011.02 1011.03 1010.98 1010.88
1012.80 1012.51 1012.20 1011.87 1011.50 1011.06 1010.57 1010.00 1009.36 1008.64 1007.85 1007.01 1006.14 1005.29 1004.50 1003.81 1003.29 1002.97 1002.88 1003.02 1003.40 1003.95 1004.65 1005.42 1006.20 1006.93 1007.58 1008.11 1008.54 1008.86 1009.10 1009.30 1009.49 1009.69 1009.90 1010.12 1010.35 1010.56 1010.74 1010.85 1010.89 1010.86 1010.75 1010.58
1013.00 1012.72 1012.46 1012.22 1011.95 1011.64 1011.28 1010.82 1010.26 1009.59 1008.82 1007.96 1007.05 1006.13 1005.26 1004.50 1003.91 1003.52 1003.37 1003.46 1003.78 1004.29 1004.93 1005.65 1006.38 1007.07 1007.68 1008.18 1008.58 1008.88 1009.12 1009.32 1009.51 1009.70 1009.91 1010.12 1010.34 1010.52 1010.65 1010.70 1010.68 1010.58 1010.39 1010.13
1013.42 1013.10 1012.84 1012.63 1012.43 1012.20 1011.93 1011.56 1011.07 1010.46 1009.72 1008.87 1007.95 1007.01 1006.10 1005.29 1004.65 1004.20 1004.00 1004.04 1004.29 1004.74 1005.32 1005.99 1006.66 1007.30 1007.87 1008.34 1008.72 1009.02 1009.24 1009.44 1009.62 1009.80 1009.99 1010.17 1010.33 1010.45 1010.50 1010.48 1010.37 1010.17 1009.90 1009.56
1014.00 1013.61 1013.30 1013.07 1012.87 1012.67 1012.43 1012.10 1011.67 1011.10 1010.40 1009.58 1008.67 1007.74 1006.83 1006.02 1005.36 1004.90 1004.66 1004.66 1004.87 1005.26 1005.79 1006.39 1007.01 1007.60 1008.13 1008.57 1008.93 1009.22 1009.44 1009.62 1009.79 1009.94 1010.08 1010.20 1010.29 1010.32 1010.28 1010.15 1009.94 1009.64 1009.28 1008.87
1014.70 1014.20 1013.79 1013.47 1013.21 1012.96 1012.70 1012.38 1011.94 1011.40 1010.72 1009.94 1009.09 1008.20 1007.34 1006.57 1005.94 1005.50 1005.27 1005.26 1005.44 1005.80 1006.28 1006.83 1007.39 1007.94 1008.42 1008.84 1009.17 1009.44 1009.64 1009.80 1009.94 1010.04 1010.12 1010.16 1010.16 1010.09 1009.94 1009.71 1009.40 1009.02 1008.59 1008.13
1015.40 1014.77 1014.23 1013.78 1013.41 1013.06 1012.72 1012.33 1011.87 1011.32 1010.66 1009.92 1009.13 1008.32 1007.55 1006.86 1006.32 1005.95 1005.77 1005.78 1005.97 1006.31 1006.76 1007.26 1007.78 1008.27 1008.71 1009.09 1009.39 1009.63 1009.80 1009.93 1010.02 1010.06 1010.07 1010.03 1009.92 1009.75 1009.50 1009.18 1008.78 1008.35 1007.88 1007.42
1016.00 1015.24 1014.56 1013.97 1013.44 1012.95 1012.48 1012.00 1011.48 1010.89 1010.24 1009.54 1008.82 1008.12 1007.46 1006.91 1006.49 1006.23 1006.13 1006.21 1006.43 1006.78 1007.20 1007.67 1008.14 1008.58 1008.97 1009.29 1009.55 1009.74 1009.87 1009.95 1009.98 1009.96 1009.90 1009.76 1009.57 1009.31 1008.98 1008.59 1008.15 1007.69 1007.22 1006.79
1016.39 1015.54 1014.73 1013.99 1013.30 1012.67 1012.06 1011.45 1010.83 1010.20 1009.55 1008.89 1008.26 1007.67 1007.16 1006.76 1006.50 1006.38 1006.40 1006.56 1006.84 1007.20 1007.62 1008.05 1008.46 1008.84 1009.16 1009.42 1009.62 1009.75 1009.82 1009.84 1009.81 1009.73 1009.59 1009.39 1009.13 1008.81 1008.43 1008.01 1007.56 1007.12 1006.69 1006.31
Thickness
5769 5759 5754 5761 5768 5768 5766 5761 5760 5771 5783 5775 5768 5764 5766 5773 5772 5768 5769 5767 5764 5762 5763 5762 5761 5759 5755 5752 5748 5744 5741 5740 5736 5732 5728 5723 5720 5719 5717 5715 5712 5709 5706 5703
5762 5759 5774 5780 5779 5771 5764 5757 5758 5768 5780 5773 5762 5761 5768 5773 5769 5768 5767 5763 5760 5757 5756 5754 5754 5752 5748 5745 5742 5738 5735 5733 5730 5726 5723 5719 5716 5713 5712 5710 5707 5705 5701 5698
5756 5768 5782 5776 5769 5763 5759 5756 5755 5755 5764 5769 5761 5751 5758 5765 5769 5767 5766 5764 5758 5753 5748 5746 5745 5744 5743 5740 5737 5735 5731 5728 5725 5722 5718 5714 5709 5707 5704 5703 5701 5699 5696 5692
5762 5775 5774 5768 5765 5762 5750 5765 5760 5754 5746 5747 5754 5731 5745 5754 5755 5755 5753 5755 5751 5749 5746 5742 5739 5737 5736 5735 5733 5730 5727 5723 5719 5716 5711 5706 5701 5698 5697 5697 5695 5693 5690 5688
5758 5768 5765 5761 5763 5763 5756 5766 5758 5752 5746 5739 5748 5736 5738 5750 5742 5743 5747 5748 5750 5747 5743 5739 5736 5733 5733 5729 5727 5725 5722 5717 5714 5710 5706 5701 5698 5695 5693 5691 5689 5687 5685 5683
5765 5776 5773 5767 5769 5765 5760 5755 5752 5751 5743 5722 5738 5734 5731 5741 5741 5741 5744 5745 5742 5743 5740 5737 5735 5732 5728 5726 5723 5719 5714 5710 5708 5704 5700 5695 5691 5688 5685 5682 5681 5680 5679 5678
5750 5762 5772 5772 5755 5756 5750 5731 5715 5715 5715 5717 5740 5731 5728 5743 5749 5745 5742 5740 5741 5740 5736 5731 5729 5727 5724 5721 5718 5714 5709 5703 5702 5699 5695 5691 5687 5683 5679 5677 5675 5674 5673 5672
5732 5736 5757 5762 5753 5744 5742 5733 5709 5693 5695 5709 5728 5721 5724 5743 5746 5746 5743 5739 5737 5735 5731 5727 5724 5722 5719 5716 5713 5708 5703 5698 5696 5693 5690 5686 5683 5679 5676 5673 5671 5669 5667 5666
5719 5724 5755 5761 5762 5751 5734 5732 5736 5717 5711 5705 5715 5722 5724 5738 5733 5733 5733 5732 5730 5728 5726 5724 5721 5718 5715 5711 5707 5702 5696 5692 5689 5687 5684 5681 5678 5674 5670 5668 5666 5665 5663 5661
5725 5716 5738 5754 5758 5756 5752 5741 5727 5710 5694 5690 5703 5705 5708 5715 5721 5724 5724 5724 5723 5724 5722 5720 5717 5714 5711 5706 5701 5696 5691 5687 5683 5681 5678 5675 5672 5669 5666 5664 5662 5660 5658 5656
5726 5709 5719 5734 5734 5732 5741 5736 5725 5716 5708 5690 5679 5689 5718 5716 5718 5719 5720 5721 5720 5719 5717 5714 5712 5710 5707 5701 5695 5689 5686 5682 5678 5675 5672 5669 5666 5664 5662 5659 5657 5656 5654 5652
5719 5708 5698 5717 5740 5747 5740 5735 5727 5705 5696 5699 5688 5688 5721 5719 5721 5721 5718 5717 5716 5714 5713 5711 5707 5703 5699 5693 5689 5684 5681 5677 5674 5671 5667 5664 5661 5659 5656 5654 5653 5651 5649 5647
5708 5697 5684 5696 5715 5728 5728 5730 5729 5720 5708 5696 5682 5687 5715 5714 5716 5716 5715 5713 5712 5708 5707 5705 5701 5697 5692 5687 5683 5679 5675 5672 5670 5666 5662 5658 5655 5652 5650 5649 5647 5646 5644 5643
5708 5692 5680 5672 5685 5701 5709 5719 5724 5716 5700 5693 5694 5695 5705 5706 5707 5709 5710 5710 5708 5704 5701 5698 5694 5690 5685 5681 5678 5674 5670 5667 5664 5661 5657 5653 5650 5648 5646 5645 5643 5642 5640 5638
5702 5686 5686 5692 5702 5706 5707 5711 5716 5711 5706 5698 5697 5697 5700 5705 5707 5707 5707 5707 5705 5700 5696 5693 5689 5684 5680 5676 5673 5669 5666 5662 5659 5655 5652 5649 5647 5645 5643 5641 5640 5638 5637 5635
5696 5681 5684 5689 5701 5704 5701 5707 5709 5707 5707 5703 5700 5696 5703 5706 5707 5704 5700 5701 5699 5695 5692 5689 5685 5680 5676 5672 5668 5664 5661 5658 5654 5650 5647 5646 5644 5642 5640 5639 5637 5635 5633 5631
5686 5679 5675 5679 5694 5696 5685 5696 5698 5698 5702 5699 5690 5692 5699 5696 5699 5698 5698 5697 5695 5692 5689 5685 5681 5676 5672 5668 5664 5661 5658 5655 5651 5647 5645 5643 5641 5639 5638 5637 5635 5632 5629 5627
5683 5677 5674 5674 5679 5664 5685 5704 5701 5693 5694 5695 5691 5691 5694 5695 5699 5701 5699 5695 5692 5690 5686 5682 5678 5673 5670 5667 5663 5659 5656 5652 5649 5646 5643 5641 5639 5638 5636 5634 5631 5629 5627 5624
5691 5678 5669 5665 5663 5672 5686 5694 5692 5683 5679 5684 5683 5685 5690 5694 5696 5694 5695 5693 5690 5687 5684 5680 5676 5672 5668 5665 5661 5657 5653 5651 5647 5644 5642 5641 5639 5636 5634 5631 5629 5626 5624 5622
5693 5685 5670 5661 5653 5652 5672 5692 5698 5687 5671 5678 5678 5678 5682 5683 5676 5679 5688 5688 5687 5684 5681 5677 5674 5670 5666 5662 5660 5655 5651 5649 5646 5644 5642 5640 5638 5635 5632 5629 5627 5625 5623 5621
5675 5673 5665 5658 5652 5660 5680 5691 5691 5663 5656 5672 5673 5674 5676 5673 5673 5679 5684 5683 5682 5680 5677 5675 5671 5667 5663 5661 5657 5652 5650 5647 5647 5645 5643 5640 5636 5634 5632 5629 5626 5624 5622 5620
5667 5664 5661 5658 5649 5653 5679 5679 5665 5660 5670 5672 5672 5674 5673 5673 5677 5679 5679 5677 5676 5675 5673 5671 5668 5664 5662 5660 5655 5651 5648 5648 5647 5645 5641 5639 5636 5634 5632 5628 5626 5624 5621 5618
5668 5664 5663 5660 5658 5671 5678 5673 5670 5672 5670 5672 5672 5675 5674 5673 5674 5676 5675 5674 5672 5671 5670 5668 5664 5661 5659 5657 5654 5650 5648 5648 5645 5643 5640 5638 5635 5633 5631 5628 5625 5622 5620 5617
5667 5670 5663 5660 5668 5673 5676 5675 5673 5672 5671 5673 5674 5674 5674 5672 5672 5672 5671 5670 5668 5668 5666 5665 5661 5658 5655 5654 5653 5651 5649 5647 5644 5641 5638 5636 5634 5632 5630 5627 5625 5622 5619 5616
5657 5658 5654 5654 5661 5665 5670 5669 5670 5671 5672 5673 5673 5674 5673 5671 5670 5669 5668 5667 5666 5665 5664 5662 5659 5657 5654 5653 5652 5651 5649 5646 5642 5639 5637 5635 5634 5631 5629 5626 5623 5620 5617 5613
5659 5653 5646 5646 5654 5652 5657 5666 5668 5667 5668 5668 5669 5670 5671 5670 5667 5667 5665 5665 5664 5663 5662 5660 5658 5656 5654 5653 5651 5650 5649 5646 5642 5638 5636 5635 5634 5632 5630 5626 5622 5618 5614 5610